Theta_e
335 333 329 336 331 329 326 323 302 309 305 296 297 297 296 305 304 301 300 300 299 304 306 307 307 309 306 305 305 307 308 307 309 302 299 308 314 315 318 320 322 321 323 324 328 327 328 332 332 333 334 335 335 337 337 337 338 338 339 339 340 340 341 342 343 343 344 344 344 344 344 344 344 344 345 345 345 345 345 344 343 345 346 346 347 347 347 348 348 347 347 348 347 347 347 347 347
336 333 331 334 330 329 318 320 307 301 301 295 297 300 299 301 301 299 297 301 304 304 306 305 306 307 308 308 306 306 308 307 309 307 309 313 313 313 316 319 322 320 322 324 327 326 326 328 332 332 333 334 334 334 335 336 336 336 336 337 337 338 338 338 339 339 341 342 342 341 341 340 341 341 342 342 342 342 342 341 341 342 344 345 346 347 347 347 346 345 347 347 346 346 346 346 346
334 333 328 330 327 325 319 317 300 299 297 294 297 298 303 297 297 300 303 304 305 306 306 305 306 306 307 309 305 304 302 312 310 309 308 312 308 308 316 319 320 321 322 323 325 325 325 328 332 331 333 333 333 333 333 334 334 335 334 334 335 335 335 335 336 337 338 338 338 338 338 338 338 338 338 339 339 339 339 339 338 339 341 342 343 344 344 345 345 345 346 346 345 342 343 344 345
331 333 328 330 320 322 311 308 303 298 295 296 296 300 300 298 300 303 305 306 305 304 306 305 304 307 306 303 305 307 307 307 311 308 306 308 309 311 313 316 318 317 318 323 323 323 323 328 330 331 332 332 331 331 331 332 332 332 332 332 333 333 333 334 335 335 335 335 335 335 334 335 335 335 336 336 337 337 337 336 335 335 337 338 340 341 341 342 342 342 341 342 341 340 339 340 341
328 332 331 324 321 314 311 306 302 302 296 296 294 300 300 302 303 304 304 304 305 304 305 305 303 307 307 306 307 303 305 308 310 312 308 309 311 311 312 316 315 314 317 321 321 321 322 329 329 329 330 330 330 330 330 330 330 330 330 330 330 331 331 331 332 332 332 332 332 332 332 331 331 331 332 333 333 333 333 333 332 332 333 334 336 337 338 338 338 338 338 338 337 336 335 336 337
327 326 332 327 316 317 313 301 298 297 300 300 297 298 300 302 304 304 304 304 305 304 305 304 303 303 304 306 307 304 311 305 310 310 309 307 310 312 312 315 311 313 316 321 321 320 321 326 327 328 329 329 329 328 328 328 329 329 329 328 328 329 329 329 329 330 329 330 330 329 328 328 329 329 329 329 330 330 330 330 330 330 330 331 332 333 334 335 335 335 334 334 333 332 331 331 332
327 323 322 322 319 314 302 298 297 298 301 302 300 300 301 303 305 304 302 302 305 304 305 305 305 305 302 305 307 309 312 315 310 312 311 309 310 310 311 308 310 312 316 318 318 319 320 325 326 327 327 327 327 326 326 327 327 327 327 326 326 326 326 326 326 326 326 327 327 327 326 325 325 325 325 326 327 327 327 327 327 327 327 327 328 329 330 331 332 331 331 330 330 329 329 328 328
328 321 318 308 306 303 298 296 296 297 300 302 302 302 303 305 305 304 302 301 300 300 302 305 305 303 304 307 301 309 311 311 310 310 309 307 308 309 309 307 308 309 314 316 316 317 322 324 325 325 326 326 325 325 326 325 325 325 325 325 324 324 324 324 324 324 324 324 324 325 324 324 324 324 324 324 325 325 325 325 325 325 325 325 324 325 326 327 327 327 327 327 326 326 325 326 325
323 318 321 311 301 306 299 297 298 302 302 302 301 306 310 305 305 303 301 303 302 303 302 303 303 298 302 303 302 306 308 311 310 310 307 306 306 306 306 306 306 309 312 313 315 315 316 321 323 324 324 324 324 325 324 323 323 323 323 323 323 323 323 322 322 322 322 322 322 322 322 322 322 321 322 322 322 323 324 324 323 323 323 323 323 324 325 325 326 326 325 325 324 324 323 323 323
318 316 308 306 306 297 298 299 298 299 301 302 301 302 304 304 304 303 302 301 303 302 304 305 303 300 303 301 301 305 305 309 308 307 307 306 306 306 307 308 308 308 309 311 312 312 313 318 320 321 322 323 323 323 322 322 321 322 322 322 321 321 321 320 320 320 320 320 320 320 320 321 320 320 321 321 321 322 322 323 322 322 322 322 322 322 323 323 324 325 324 323 323 322 322 322 322
309 316 314 304 300 296 295 295 299 304 301 303 302 305 304 304 304 302 303 302 304 302 303 304 302 301 302 302 305 310 308 307 305 304 306 305 305 305 302 306 307 307 307 309 309 310 310 311 317 318 319 319 320 320 320 320 320 320 320 320 320 319 319 318 318 318 318 318 318 318 318 319 319 318 318 318 319 319 320 321 320 320 320 320 321 320 320 321 321 322 321 321 320 319 319 319 319
307 308 310 299 295 295 296 297 299 301 302 302 301 303 304 305 305 302 302 301 302 302 302 303 302 304 300 301 304 306 306 305 306 305 305 305 302 304 304 303 307 307 307 307 308 308 308 309 309 314 316 317 317 317 318 318 318 318 318 318 318 317 317 316 316 316 316 315 315 315 315 315 316 316 315 315 316 316 317 318 318 318 318 318 319 319 318 318 319 319 319 319 318 318 318 318 318
308 310 304 300 298 297 299 298 298 299 300 300 301 303 304 304 302 302 302 302 303 301 302 304 305 305 301 301 304 306 304 305 306 305 304 302 302 303 304 303 304 305 306 306 304 306 307 306 307 307 311 313 313 314 314 315 315 316 315 315 315 315 314 314 314 313 313 313 313 312 312 311 312 312 313 312 312 313 313 315 316 316 316 316 317 317 317 317 318 318 317 317 317 317 317 318 318
310 311 306 299 302 300 298 298 298 296 297 300 302 303 305 303 303 304 302 301 302 302 306 307 306 305 301 302 300 302 304 306 305 305 303 302 302 301 302 302 304 304 305 304 303 303 303 304 304 305 306 305 306 309 311 312 313 313 313 312 312 311 311 311 311 311 310 309 309 309 308 308 309 310 310 311 309 309 310 311 313 314 314 315 315 315 316 315 316 316 315 316 316 316 316 316 316
309 311 305 302 296 297 298 296 297 298 296 301 302 303 303 305 306 305 302 301 301 304 307 308 308 302 296 299 300 303 305 305 304 304 304 302 302 301 303 303 304 303 302 302 302 301 301 301 302 304 306 304 304 303 303 307 310 310 310 310 310 309 309 309 307 307 306 306 306 306 307 307 306 306 306 306 307 306 305 305 309 311 312 313 314 313 314 313 314 314 314 314 315 314 313 314 314
314 309 305 299 294 296 299 299 301 299 297 300 301 304 302 304 305 303 304 303 306 307 307 301 307 302 303 304 306 306 306 304 304 304 302 301 301 303 302 301 299 301 301 300 300 301 300 301 301 302 303 303 302 302 302 302 307 307 308 308 307 307 307 306 306 305 304 304 304 304 307 308 305 302 303 303 303 304 303 303 306 309 309 310 311 311 311 311 313 312 312 313 313 311 311 311 311
314 312 300 298 294 296 299 299 300 295 301 301 302 302 299 300 304 304 302 304 302 303 303 305 303 307 305 304 307 306 304 305 304 302 301 299 299 298 298 298 298 298 303 299 299 300 300 300 301 300 301 302 302 301 300 300 303 305 304 304 305 305 304 305 305 305 308 306 304 306 305 301 299 298 298 299 305 302 304 303 304 306 307 307 308 309 309 309 311 310 310 311 310 309 308 309 310
313 302 298 295 297 297 302 302 301 303 300 299 300 301 301 299 300 303 304 302 301 302 302 304 305 305 304 305 306 305 303 302 301 299 298 298 298 296 296 296 296 296 298 298 299 300 299 300 300 300 301 301 301 303 303 303 303 305 301 301 301 302 303 306 302 301 306 301 306 301 298 299 298 297 297 302 299 302 302 304 304 304 306 306 306 307 307 307 309 308 309 309 308 307 307 302 302
306 301 300 295 300 301 302 302 302 299 300 303 302 301 301 300 301 301 299 298 299 299 301 302 302 303 301 303 303 301 302 300 300 299 298 298 297 296 296 296 295 297 297 297 298 299 299 299 299 300 300 300 301 301 303 302 300 299 299 298 301 304 303 301 300 300 300 300 300 297 299 298 298 298 297 301 301 306 302 304 305 303 304 304 304 304 304 305 306 306 307 307 306 305 301 299 300
305 302 296 299 305 302 304 305 303 304 303 301 301 301 300 302 302 302 299 298 299 298 298 299 300 301 300 301 302 301 300 300 300 299 298 298 298 297 296 296 295 296 297 297 297 300 299 299 299 299 300 300 300 300 301 299 298 299 298 300 300 299 300 301 299 299 299 299 300 297 297 298 297 296 304 304 303 298 298 302 304 303 303 304 302 302 303 304 304 304 304 304 305 301 299 299 299
305 300 297 300 303 300 302 303 304 303 302 301 300 303 300 301 302 300 299 296 298 300 302 301 301 302 302 301 301 300 300 299 299 299 299 298 299 299 297 297 296 297 297 298 298 298 298 299 298 299 299 299 299 299 299 298 299 298 298 298 299 298 299 299 298 298 298 298 298 297 298 298 298 296 296 296 295 296 295 295 295 295 295 295 302 294 294 296 297 296 296 298 296 297 296 297 298
308 302 303 303 303 300 303 302 301 301 301 300 299 298 299 303 302 300 299 296 296 300 303 304 304 304 304 300 301 300 299 299 298 298 298 298 298 298 298 297 298 297 298 297 297 297 298 298 298 299 299 299 300 298 299 299 300 297 297 297 297 298 300 297 298 297 297 297 296 297 296 296 296 296 295 295 295 295 294 293 294 294 293 294 295 293 293 293 293 293 294 294 294 295 295 296 296
297 301 303 304 304 301 303 303 301 300 300 298 298 300 302 300 299 301 300 299 301 304 304 304 305 306 306 303 302 300 299 299 298 298 298 298 299 299 298 298 297 296 297 297 297 297 298 298 298 299 298 299 299 298 298 297 297 297 297 297 297 297 297 296 295 295 295 296 296 296 296 294 294 294 294 294 293 294 294 293 292 293 293 292 293 292 293 292 292 293 293 293 293 294 294 295 295
301 298 301 302 303 301 303 302 299 299 299 299 301 300 299 299 296 301 300 302 304 305 305 305 303 305 304 301 302 300 300 300 299 299 299 299 299 299 299 298 298 297 297 297 297 297 298 298 298 298 298 298 298 298 296 296 297 297 298 297 296 298 297 295 295 294 297 294 295 294 296 294 293 292 293 292 293 293 293 293 293 292 292 292 293 293 292 291 291 292 292 292 292 292 292 293 293
299 299 301 302 301 302 302 299 297 299 299 299 301 297 298 299 299 300 300 302 304 304 305 303 303 303 303 302 301 301 300 300 300 300 300 300 300 301 301 299 298 297 296 297 297 296 297 298 298 298 298 298 298 297 295 296 296 296 294 295 294 297 296 295 294 296 294 294 295 294 295 294 293 293 292 292 292 292 292 292 292 291 292 291 292 290 291 290 290 291 291 291 291 291 291 291 292
301 301 302 302 301 303 300 300 300 299 300 300 297 297 299 300 301 298 301 302 304 304 303 303 302 301 302 302 301 301 301 301 301 300 300 300 301 300 300 299 298 297 297 297 296 296 297 298 297 297 297 298 297 297 295 296 295 295 295 295 293 297 294 295 295 294 293 293 293 294 294 293 292 291 292 291 291 292 292 291 291 291 291 291 290 290 290 290 290 290 290 291 291 290 290 291 292
300 300 300 299 300 301 301 300 301 300 299 299 297 297 298 300 299 295 301 303 304 303 303 304 301 301 301 302 302 302 302 301 301 301 300 300 300 300 300 300 298 297 298 297 296 296 297 297 297 297 297 298 296 296 295 295 296 295 296 294 294 295 294 295 295 294 293 292 293 293 293 293 293 292 292 291 290 291 291 290 291 291 290 290 290 290 290 290 290 290 291 290 290 290 290 290 291
301 300 298 298 299 300 301 301 300 299 298 299 298 296 298 298 298 297 301 302 302 302 302 303 302 300 300 301 301 302 302 303 302 302 300 299 299 300 299 300 299 297 297 297 296 296 296 296 296 296 296 297 296 295 297 295 295 295 295 294 294 294 295 293 293 293 294 292 293 293 292 292 292 292 292 291 291 290 290 290 290 290 289 289 289 289 289 290 290 291 291 291 291 290 290 290 291
300 298 295 297 299 299 300 299 300 300 298 299 299 295 294 295 294 299 301 301 301 300 301 301 302 302 300 300 301 300 301 302 302 301 301 301 301 301 300 301 300 297 298 298 297 296 295 296 296 296 296 296 295 295 296 295 295 296 295 294 294 296 294 294 293 293 292 293 293 293 292 292 291 291 291 291 291 289 290 290 289 290 289 289 289 289 290 290 289 289 290 290 289 289 289 289 291
300 298 296 296 296 295 300 302 301 298 298 299 298 286 292 295 297 300 302 301 300 299 299 299 300 300 300 300 300 300 301 301 301 302 302 302 301 301 300 301 301 299 297 297 297 296 296 297 297 296 295 296 295 295 295 294 295 294 294 294 295 294 292 292 293 293 293 292 292 292 292 291 291 290 290 290 290 288 289 289 288 289 288 288 288 289 288 288 288 288 288 288 290 289 287 288 288
294 298 298 291 290 291 299 301 299 297 297 298 298 288 291 296 298 300 302 301 300 298 298 298 300 300 299 299 299 300 300 301 302 302 303 303 302 301 300 301 300 299 298 297 296 296 296 296 297 296 296 295 296 295 295 294 294 294 293 293 293 293 293 292 291 292 291 291 292 291 292 291 290 291 290 289 289 288 288 288 288 288 289 288 287 288 288 288 288 287 287 287 287 287 287 288 288
296 292 289 292 290 293 297 299 298 296 296 298 296 288 291 296 298 300 302 300 300 298 298 298 299 300 300 299 299 300 300 301 302 302 303 303 302 301 300 300 300 299 298 297 297 296 295 295 296 295 295 295 294 295 294 295 294 293 293 295 292 293 291 292 291 291 291 290 291 291 291 290 291 290 290 289 288 288 287 287 287 288 288 287 288 287 288 287 287 288 287 287 285 285 287 286 287
296 292 289 291 293 294 296 297 297 298 295 296 296 290 293 294 297 299 299 300 299 298 298 298 299 300 300 299 299 299 300 300 301 301 302 302 302 301 301 300 300 299 298 297 296 296 295 294 295 295 294 294 294 294 294 293 293 293 293 293 293 293 291 291 290 291 291 291 290 290 291 291 290 290 290 289 287 287 287 286 287 288 288 287 287 287 286 288 286 289 286 288 286 285 285 285 285
291 294 291 294 292 294 291 294 296 297 295 292 295 292 293 296 296 298 298 299 298 297 298 299 299 299 299 299 299 299 299 299 299 300 301 302 302 301 301 301 300 299 298 297 297 296 295 295 294 294 294 294 294 294 294 293 293 293 292 292 293 291 292 291 291 291 291 290 290 290 291 290 291 290 289 289 287 287 287 287 287 288 287 287 286 286 286 286 286 286 285 286 286 285 284 284 284
290 290 289 291 293 295 294 293 294 295 295 293 292 291 293 295 297 298 298 298 298 298 298 298 299 299 300 300 300 299 299 299 300 300 301 301 301 301 300 300 299 298 298 297 297 296 295 295 295 295 294 294 293 294 294 293 293 292 291 291 291 290 291 291 290 290 290 290 289 291 290 290 290 290 289 289 287 287 286 286 286 287 287 286 285 285 285 286 287 285 284 284 285 285 284 284 284
293 293 292 292 290 292 293 297 295 296 292 292 292 291 292 294 296 298 299 300 299 299 298 299 299 299 300 300 300 299 299 299 300 301 301 301 301 301 299 299 298 298 297 296 296 295 295 294 294 294 294 294 293 293 293 292 291 291 290 290 289 290 290 290 291 290 291 289 291 290 290 289 289 289 288 288 287 286 286 286 286 287 286 285 285 284 284 284 284 284 283 284 284 284 286 285 285
296 295 293 292 292 293 296 297 295 296 292 292 292 293 293 295 296 297 299 299 298 298 298 298 298 298 299 299 300 300 299 300 300 301 301 301 300 300 298 298 297 297 296 295 296 295 295 294 294 293 294 294 293 292 292 291 290 290 289 290 289 290 290 290 290 290 290 289 290 290 290 289 289 289 288 287 287 287 286 285 285 286 285 285 284 284 285 284 285 284 284 284 284 283 283 284 284
295 294 292 292 292 291 295 295 294 295 292 289 293 293 293 295 296 297 298 298 297 298 298 298 299 300 300 299 299 300 300 301 301 299 300 300 299 298 297 297 296 295 295 295 295 295 295 294 294 293 294 293 293 293 292 291 291 290 290 290 290 290 290 290 289 289 289 291 290 289 289 289 289 288 288 287 287 286 285 285 285 285 285 284 284 285 285 287 284 283 284 283 284 283 282 284 284
295 292 292 290 291 294 296 295 292 293 291 289 291 291 292 295 296 298 298 298 299 299 299 299 299 299 300 300 299 298 298 299 298 298 299 299 298 298 296 296 296 295 294 294 295 294 294 294 294 293 293 293 293 293 292 291 291 291 291 290 290 289 290 290 289 289 290 289 289 289 289 289 288 288 287 287 287 286 285 284 284 284 285 285 284 283 283 283 283 283 283 282 282 282 283 284 284
292 291 287 288 292 290 288 292 292 291 291 289 290 290 291 294 296 297 298 299 299 300 301 301 301 299 299 300 300 299 298 298 297 297 297 297 297 296 295 295 295 295 294 294 294 294 294 294 293 293 293 293 292 293 293 292 292 291 291 291 291 290 289 290 290 289 289 289 288 289 288 288 288 287 287 287 287 286 285 284 284 284 284 284 284 283 283 282 283 283 283 283 283 280 281 281 284
293 293 291 290 291 293 292 292 290 292 292 292 289 288 289 292 292 294 297 298 298 299 299 300 300 300 301 301 301 301 299 298 297 297 296 296 295 295 295 295 295 294 294 293 294 294 294 294 293 293 293 293 292 293 292 292 292 291 291 291 290 289 289 287 287 286 287 288 288 287 288 288 288 287 287 287 286 285 285 285 283 283 283 284 283 282 282 282 282 283 283 282 281 280 280 280 281
291 294 293 293 293 292 293 294 293 289 288 289 290 284 285 290 293 294 296 294 295 296 296 297 298 299 299 299 300 300 302 299 298 297 297 296 296 295 294 294 294 294 294 294 294 294 294 294 294 293 293 293 292 292 292 292 291 291 289 288 286 286 286 285 285 286 286 286 286 287 288 288 287 287 286 286 286 285 284 284 283 283 283 283 284 283 282 282 282 282 282 282 281 281 281 280 279
288 290 296 295 294 293 293 292 292 283 282 289 291 281 283 288 290 292 293 291 293 294 295 297 298 298 298 298 299 299 301 299 299 298 297 295 295 294 294 294 294 294 294 294 293 293 294 294 294 294 293 292 293 292 292 292 291 290 289 289 288 287 286 286 287 287 287 287 287 287 287 287 287 287 286 285 285 285 284 284 283 283 283 282 283 282 281 281 282 282 283 282 282 283 281 279 279
288 291 293 295 294 292 293 292 290 288 291 292 290 289 282 284 289 293 294 292 292 293 294 295 296 297 298 298 298 298 301 299 299 298 297 296 295 295 294 294 294 294 294 294 293 293 293 293 293 293 293 293 292 292 292 292 290 290 289 288 288 287 286 286 287 287 288 288 287 287 286 286 286 286 285 285 285 284 284 283 283 283 282 282 283 282 281 281 283 283 283 282 282 281 280 279 278
291 292 295 293 294 293 292 291 287 286 284 282 285 289 282 283 287 293 294 291 292 293 294 295 296 296 297 298 299 298 300 300 300 298 297 296 295 295 295 294 295 294 294 294 293 293 293 293 293 293 293 292 292 292 291 291 291 290 289 288 287 287 287 287 287 288 287 287 286 286 285 285 285 285 285 285 284 284 284 283 282 282 282 282 282 283 281 281 281 281 280 281 280 281 281 281 279
294 293 294 293 293 291 291 286 285 284 282 280 284 288 281 283 289 288 290 291 291 292 294 296 297 297 297 298 298 299 300 299 300 299 298 297 296 296 296 295 294 294 295 295 293 293 293 293 292 292 292 292 292 291 291 291 290 290 289 288 287 287 287 287 287 286 285 285 285 284 284 284 284 284 284 284 283 283 283 283 282 281 281 281 282 281 281 281 281 280 280 280 281 280 280 280 280
295 295 293 291 290 286 286 286 284 282 279 282 286 288 286 281 286 287 287 289 292 293 294 295 296 296 296 297 298 299 299 299 299 299 298 297 296 296 295 294 294 294 294 294 293 293 292 292 292 292 292 292 292 291 291 290 290 290 289 288 287 287 287 287 286 285 285 284 284 284 284 283 283 283 283 283 283 283 282 282 281 281 281 282 281 281 280 280 280 280 281 281 280 280 279 279 280
294 288 287 287 284 284 283 282 283 277 279 283 286 288 288 279 281 289 294 295 295 295 294 294 295 296 297 297 298 300 300 299 299 298 297 296 295 294 294 293 293 293 293 293 293 292 292 292 292 291 291 292 292 292 291 290 290 289 289 288 288 288 288 287 286 285 285 284 284 284 283 283 282 283 282 282 282 282 282 281 281 281 281 280 280 280 280 280 280 280 279 279 279 279 279 279 278
291 286 285 281 280 281 278 279 275 276 278 282 285 288 283 284 289 291 292 292 294 295 296 295 295 296 296 297 299 301 299 299 299 297 297 296 295 294 293 293 292 292 292 293 293 292 292 292 291 291 291 291 291 291 291 290 290 289 289 288 288 288 288 287 286 285 285 284 284 283 283 282 282 281 281 281 281 281 281 280 280 280 280 280 280 280 280 279 279 279 278 278 278 278 278 278 277
288 285 282 280 276 276 274 277 279 280 283 286 285 288 284 288 290 295 293 294 295 296 295 295 296 296 296 298 300 300 299 299 298 297 297 296 295 294 294 293 293 292 292 292 292 292 292 292 291 291 291 291 291 291 290 290 289 289 289 289 289 288 287 287 286 285 285 285 284 283 283 282 281 281 281 280 281 281 281 281 281 280 280 279 279 279 279 279 279 278 278 278 277 278 277 277 277
287 289 287 284 282 277 273 277 276 278 281 281 284 282 278 278 284 294 297 298 296 296 297 294 294 294 295 296 299 298 297 296 297 297 297 296 296 294 294 294 293 292 292 292 292 292 292 291 291 291 290 291 291 291 290 290 289 289 289 289 288 288 288 287 286 286 285 284 284 283 282 281 281 281 281 281 281 281 280 280 279 279 279 279 279 278 280 278 278 278 278 277 277 277 277 277 277
286 288 290 283 283 285 282 283 282 279 278 278 279 278 281 286 291 293 296 297 297 295 296 295 295 295 297 297 298 298 297 297 297 297 296 296 296 295 294 294 293 293 292 292 292 292 291 291 291 291 291 291 291 290 290 290 289 289 288 288 288 288 287 287 286 285 284 284 283 282 281 281 280 280 280 280 280 280 279 278 278 278 278 278 278 277 277 277 276 276 276 276 276 278 277 276 276
285 287 282 286 290 288 283 283 284 281 279 280 283 283 287 292 293 295 294 292 293 294 293 293 294 295 296 296 296 297 297 296 296 297 296 296 295 295 295 294 293 293 292 292 292 292 292 291 291 290 290 290 290 290 290 290 289 288 288 288 287 287 286 286 285 284 283 283 282 281 280 280 280 279 280 280 279 278 278 278 277 277 277 277 277 277 276 276 276 276 276 275 275 276 276 275 276
286 281 284 291 291 288 283 277 281 278 276 280 284 281 283 283 282 289 291 291 292 292 293 295 295 295 294 296 296 296 297 296 296 296 296 296 296 295 295 294 294 293 293 292 292 292 292 292 291 290 290 290 290 290 290 289 289 288 287 287 287 287 286 285 284 283 282 281 280 280 280 279 278 279 279 279 278 278 277 279 277 276 276 276 276 276 276 276 275 276 275 275 275 275 275 275 275
286 284 289 284 280 278 282 281 274 274 275 277 281 283 283 285 286 289 286 289 290 293 294 294 294 293 293 294 296 296 295 296 296 296 296 296 296 295 295 295 294 294 293 292 292 292 291 291 291 291 290 290 290 290 289 289 289 288 288 287 286 286 285 284 283 282 281 280 279 279 278 278 278 278 278 278 277 277 277 277 276 276 276 276 276 276 276 275 275 275 275 275 275 274 274 274 274
290 290 285 287 282 280 279 281 281 279 277 276 278 281 280 288 287 288 288 290 291 293 292 292 293 293 294 294 296 296 296 297 296 296 296 297 296 295 295 294 293 293 293 292 291 291 290 291 290 290 290 290 289 289 289 288 288 288 287 286 286 285 284 283 282 281 280 279 279 278 278 277 277 278 277 277 277 276 276 276 276 276 275 275 275 274 274 274 274 274 274 274 274 274 273 273 273
283 284 281 284 282 284 282 282 281 280 277 277 276 277 283 288 289 290 290 292 292 292 291 292 293 293 294 295 296 296 297 297 297 297 296 296 296 294 293 293 292 290 290 291 290 290 290 290 290 290 289 289 289 289 288 288 288 287 286 285 285 283 282 282 280 280 279 279 278 278 278 277 277 277 277 277 276 276 276 276 275 275 275 274 274 274 274 274 273 273 273 273 273 273 272 272 273
288 287 285 286 283 280 278 278 284 281 281 277 277 277 284 291 292 291 291 293 293 291 292 293 293 293 293 294 293 294 295 297 298 298 297 296 295 295 293 289 288 289 289 289 290 289 288 289 289 289 289 288 288 288 288 287 287 287 285 285 284 282 281 280 279 279 278 278 278 277 277 277 277 277 277 276 276 276 275 275 274 274 274 273 274 273 273 273 273 272 272 273 272 272 272 272 272
Wind_Speed
6 6 6 6 4 3 3 2 2 2 2 6 4 4 1 4 3 3 2 3 0 2 4 2 2 4 3 2 4 4 8 2 1 1 1 2 4 5 2 2 3 3 3 4 5 7 5 6 9 9 9 10 10 11 13 13 12 12 13 13 13 13 13 14 13 13 15 16 17 16 16 16 16 17 16 16 18 18 17 16 16 17 17 15 16 16 16 16 14 13 13 13 15 15 14 14 14
6 6 4 2 3 2 1 1 1 3 3 4 8 2 3 3 1 1 4 2 2 2 3 4 3 3 5 5 3 3 8 6 5 4 3 5 5 4 2 1 3 3 2 4 7 6 4 4 8 8 9 10 10 11 12 13 13 11 11 12 12 12 12 13 11 11 13 14 15 15 15 16 16 16 15 16 15 16 16 16 16 16 16 17 18 18 19 18 15 15 15 15 17 17 15 14 14
6 7 4 3 3 2 3 1 2 3 4 5 2 4 2 4 3 2 3 7 6 6 5 5 2 3 1 0 2 1 1 5 9 7 4 9 7 4 4 3 3 3 3 5 7 6 4 3 7 9 10 10 11 12 12 12 13 13 12 12 12 12 12 11 11 11 12 13 14 14 15 15 16 15 15 14 15 14 15 15 15 15 15 16 18 18 18 18 17 18 18 18 19 17 17 16 16
5 6 3 3 2 2 2 2 2 4 4 6 3 1 1 4 5 9 7 5 5 4 2 1 1 0 1 3 1 1 6 3 5 8 5 7 1 8 6 4 6 3 2 5 7 5 3 5 9 10 10 11 12 12 12 12 12 12 12 12 12 12 12 12 12 11 11 12 12 13 14 14 14 15 15 15 15 15 14 14 15 15 15 15 16 16 16 16 17 16 16 18 18 16 15 16 16
3 4 3 2 1 2 1 2 3 3 6 3 1 0 2 2 8 7 5 4 3 3 1 2 1 1 1 1 1 1 2 5 4 6 3 3 5 6 6 5 5 4 4 6 7 5 4 7 9 10 11 11 12 12 12 12 12 12 12 12 12 12 12 12 12 12 12 12 13 13 13 13 14 14 14 15 15 14 14 14 15 15 15 15 14 14 15 15 16 16 16 15 14 14 14 14 14
4 4 3 1 1 1 0 2 4 6 7 3 2 2 2 3 8 8 5 5 4 4 4 3 1 2 1 0 3 2 1 2 4 4 5 3 6 6 5 4 5 4 4 8 6 4 4 8 9 10 11 11 12 12 12 11 12 12 12 12 12 12 12 12 12 12 12 12 13 13 13 13 14 14 14 14 14 14 14 14 14 14 15 14 14 14 15 15 15 15 15 14 15 14 14 13 13
2 2 2 1 3 1 2 4 6 7 1 3 2 3 4 6 8 9 5 3 2 3 1 1 3 0 1 1 4 2 2 2 5 1 5 7 6 5 5 4 5 5 6 8 6 5 4 9 10 10 11 11 12 12 12 12 12 12 12 13 13 12 13 12 12 12 13 13 13 13 14 14 14 14 14 14 14 14 14 14 14 14 14 14 14 14 14 14 14 14 14 14 14 14 14 14 13
2 0 1 2 2 2 3 5 7 7 1 2 1 4 3 8 7 5 5 3 3 2 3 1 1 0 0 4 2 1 5 6 8 9 12 8 6 5 4 5 5 5 7 7 6 4 6 9 10 11 11 12 11 11 12 12 12 12 12 12 13 13 13 13 13 13 13 13 14 14 14 14 15 15 15 15 15 15 14 14 14 14 14 14 14 14 14 13 13 13 13 13 12 12 12 12 13
2 2 0 1 2 2 3 6 7 7 2 2 4 4 4 7 4 5 5 2 3 1 7 5 3 3 1 2 1 3 4 6 8 9 9 9 7 5 4 6 5 6 7 8 7 4 4 9 11 12 12 11 12 12 12 12 12 12 12 12 13 13 13 13 13 13 13 13 14 14 14 14 14 15 15 15 15 15 15 15 14 14 14 14 14 14 14 14 13 13 13 13 13 12 12 12 12
1 1 1 1 1 4 4 5 7 3 1 3 4 3 2 4 3 4 6 4 4 4 5 7 5 3 4 2 3 3 4 8 8 7 7 8 6 4 3 6 7 6 6 7 7 5 4 9 13 13 12 12 12 12 12 12 12 12 12 12 13 13 13 13 13 13 13 13 13 14 14 14 14 14 14 14 14 15 14 14 14 14 14 14 14 14 14 14 14 14 14 14 14 14 13 13 12
2 2 1 1 3 4 5 7 3 0 4 1 3 3 2 3 3 3 4 4 6 4 5 7 3 7 3 2 2 3 10 9 10 11 8 8 6 5 5 5 6 5 6 7 8 6 5 5 12 12 12 12 12 12 12 12 12 12 12 12 13 13 13 13 13 13 13 13 13 13 14 14 14 14 15 15 14 15 14 14 14 14 14 14 13 14 14 14 14 14 14 14 14 14 14 14 14
2 3 2 2 4 4 5 4 7 2 4 3 3 4 2 2 1 3 4 4 5 5 4 8 1 4 4 4 2 4 8 9 6 8 9 7 7 7 7 4 6 7 6 6 7 7 6 5 4 9 11 12 12 12 12 12 12 12 12 13 13 12 13 13 12 12 12 12 13 13 14 14 14 14 15 15 15 14 15 15 14 14 14 14 14 13 14 14 14 14 14 14 14 14 14 14 14
2 3 2 3 3 4 5 6 4 5 4 4 6 3 4 3 4 3 3 4 5 4 5 9 3 0 2 4 2 6 9 8 9 9 9 8 7 7 7 7 7 7 6 6 6 8 7 6 6 4 8 13 12 11 11 11 12 12 13 13 12 12 12 12 12 12 11 11 12 12 13 13 13 14 14 15 15 15 14 15 14 14 14 14 13 13 14 14 14 14 14 14 14 14 14 14 13
2 2 3 3 4 5 5 4 4 4 2 3 5 5 3 2 4 3 2 4 4 6 1 13 1 1 3 4 2 6 7 9 11 9 7 6 6 6 6 6 6 6 5 6 6 6 7 7 6 6 6 6 5 7 10 11 11 12 12 12 12 12 12 12 12 11 11 11 10 11 12 13 13 13 13 14 15 15 15 14 14 15 14 14 13 13 13 13 13 13 14 14 14 15 15 14 12
2 3 1 3 3 4 4 5 3 1 3 2 2 2 1 3 0 2 4 4 1 3 0 4 3 3 2 6 2 6 9 10 11 8 6 7 6 5 6 5 5 5 4 5 5 6 6 8 8 7 6 7 7 5 3 6 11 11 11 11 11 12 11 11 11 11 9 9 8 7 8 11 11 10 10 11 11 13 13 12 13 13 13 14 13 13 13 14 13 13 14 13 13 13 14 14 13
1 3 1 2 4 4 3 1 1 0 2 2 3 1 2 2 2 1 0 2 2 2 0 1 2 2 1 2 1 7 13 12 10 8 7 7 5 5 5 4 4 4 4 4 5 5 5 6 5 5 5 5 6 6 5 4 7 10 10 11 11 10 9 9 8 8 7 3 2 2 2 6 7 6 8 4 7 7 9 7 10 11 12 13 12 12 12 14 13 13 14 14 13 14 13 13 13
1 0 2 3 6 5 4 3 1 2 1 3 2 3 3 3 2 1 2 2 1 3 2 2 4 1 0 3 4 13 12 12 10 9 8 6 6 5 5 5 4 4 3 4 4 5 5 6 6 5 4 5 6 6 5 4 6 10 8 10 9 9 8 7 7 5 4 2 1 4 3 3 5 3 3 1 3 1 4 5 8 10 12 14 14 12 13 14 13 13 14 14 13 15 13 13 11
1 2 2 5 6 7 2 1 1 1 0 3 3 4 2 3 2 2 1 2 3 2 5 3 3 3 5 3 7 11 12 13 11 12 9 8 6 6 6 6 6 6 6 5 5 5 5 5 5 5 5 5 5 5 4 4 5 7 6 4 4 4 4 6 3 3 4 1 2 4 3 2 4 3 2 2 1 1 1 4 5 9 12 13 14 13 14 15 14 14 14 14 13 14 13 6 6
3 2 3 6 4 2 1 2 3 3 2 1 3 3 2 3 7 2 2 3 6 6 8 5 5 4 8 5 11 12 12 11 12 11 12 11 10 10 9 7 8 7 7 6 6 7 6 6 5 6 5 5 5 4 5 5 5 4 5 4 4 5 3 3 3 3 2 1 1 4 3 1 2 3 2 2 0 1 1 3 5 11 13 13 14 13 15 14 14 14 14 14 14 12 6 6 6
5 2 4 7 2 4 3 0 2 1 3 3 3 4 4 3 2 3 3 4 5 11 8 6 9 10 9 9 11 11 11 12 11 12 12 12 11 10 10 9 9 8 9 8 7 6 7 7 6 7 7 6 6 6 5 6 6 6 6 5 6 5 4 4 3 3 2 1 2 3 2 1 3 4 4 7 6 5 6 8 10 10 11 10 15 7 12 12 15 13 13 13 8 5 5 6 6
3 4 4 4 0 3 2 3 1 1 3 3 4 1 1 3 2 4 3 4 9 10 10 11 13 13 11 13 12 11 12 11 11 11 11 11 10 8 10 11 11 9 8 8 7 8 8 8 7 8 7 6 6 6 6 6 6 5 5 5 5 5 4 5 4 3 2 2 3 2 1 1 4 4 4 4 5 6 6 6 6 6 6 5 8 5 7 6 7 6 6 6 7 6 6 6 5
2 6 6 7 5 2 2 3 6 2 3 1 3 5 4 3 4 6 5 7 10 7 7 12 12 12 11 14 14 12 13 13 14 13 13 14 14 13 9 7 8 7 9 9 10 9 9 9 8 8 7 6 6 6 6 6 6 5 5 4 4 4 3 3 4 4 4 2 3 2 1 2 5 4 4 4 5 6 6 6 6 5 5 4 6 6 6 6 6 6 6 6 7 7 6 6 6
4 6 9 12 11 6 1 1 2 2 1 3 2 3 4 4 3 5 8 13 13 2 2 3 2 8 10 18 15 13 14 15 15 16 15 14 13 12 12 10 10 10 10 9 9 8 9 9 8 8 8 7 6 6 5 6 5 6 5 5 4 5 4 4 4 5 3 2 2 2 3 3 4 4 4 4 5 5 5 5 5 4 4 5 6 6 6 6 6 6 6 6 7 7 7 7 6
4 6 5 8 6 5 5 1 5 2 3 4 2 3 2 3 9 4 10 15 15 8 3 2 2 6 9 15 15 18 18 17 17 18 17 17 17 16 13 12 10 7 8 9 9 9 10 10 10 10 8 7 6 6 6 6 5 6 5 4 4 6 5 4 4 5 4 4 3 3 2 3 3 4 4 4 4 4 4 4 3 4 5 4 5 6 6 6 6 6 6 6 6 6 7 7 6
4 8 5 6 1 3 3 3 3 4 5 4 2 3 8 6 7 3 15 13 11 10 10 4 3 5 7 12 14 13 13 13 13 13 10 9 9 10 8 7 8 9 10 10 9 10 11 10 11 11 9 9 7 7 7 6 6 6 6 5 4 4 4 5 6 4 5 5 3 3 3 3 3 4 4 4 4 3 3 3 3 4 4 4 5 5 5 6 6 6 6 6 6 6 6 7 6
6 9 5 5 5 4 4 5 5 5 3 4 4 10 8 8 7 13 21 14 10 5 6 6 5 5 8 11 13 13 13 14 13 12 15 11 9 11 12 11 9 11 11 10 11 9 10 11 12 12 11 10 8 7 7 7 7 7 6 5 6 4 4 6 5 4 6 6 4 3 2 3 4 4 4 3 4 2 3 3 3 3 3 3 5 5 5 6 6 6 5 5 5 6 6 7 6
1 3 4 6 8 8 5 7 6 6 6 5 8 9 9 6 6 11 10 14 11 11 11 8 7 8 9 8 10 12 13 14 16 12 8 9 10 13 13 11 11 10 11 11 11 10 10 12 11 11 11 9 8 8 7 8 8 7 6 6 6 5 6 5 5 5 4 6 5 3 4 2 4 4 4 3 3 2 3 3 2 3 3 3 5 5 4 4 4 5 5 4 5 6 6 6 7
4 3 5 9 12 12 12 9 9 4 5 8 7 9 5 2 2 16 15 1 6 11 12 11 10 9 9 9 9 9 11 12 11 10 15 13 14 13 13 14 14 10 13 13 11 10 11 12 13 11 12 10 10 8 7 8 8 7 6 7 7 6 6 6 5 6 6 6 4 3 4 3 3 5 3 3 1 2 3 2 2 3 3 5 4 3 5 4 4 4 4 4 4 4 5 6 6
3 3 6 9 9 11 10 13 11 8 6 8 6 3 9 8 11 19 21 6 3 5 7 9 11 10 8 8 9 8 12 10 10 12 15 16 13 12 15 14 14 12 9 12 12 11 13 13 13 12 12 10 11 9 9 8 8 8 7 7 6 6 6 6 6 6 6 6 4 4 4 3 3 5 4 2 1 3 3 2 2 2 2 4 3 4 4 3 4 5 4 4 5 5 6 6 5
3 4 5 12 9 11 14 11 11 9 4 9 7 4 9 12 21 19 19 8 8 6 7 7 7 8 7 8 9 10 9 9 12 15 14 13 12 13 14 13 14 12 10 9 11 13 11 9 9 9 11 11 11 8 8 8 7 8 7 7 6 7 6 6 6 6 7 6 6 4 4 3 3 5 3 3 1 3 2 2 3 2 4 4 3 4 4 5 5 5 4 5 5 5 5 5 6
3 6 5 6 5 7 6 8 10 10 4 11 4 6 10 10 12 20 15 9 11 12 10 8 8 8 7 8 10 11 12 13 16 15 14 14 12 11 14 12 13 13 9 10 15 14 12 11 9 9 10 11 10 9 9 8 7 7 7 7 7 6 6 6 7 6 6 7 7 6 5 4 4 4 3 2 3 2 2 3 2 3 4 3 3 3 4 4 5 3 5 5 5 4 5 5 5
4 2 5 4 7 8 3 2 15 12 2 7 5 6 13 13 14 8 13 9 11 10 8 8 9 9 10 10 11 12 13 13 14 13 14 14 13 12 14 14 14 14 14 13 12 12 13 12 11 10 11 12 9 9 8 8 9 7 7 7 7 5 7 7 7 7 6 7 7 6 5 4 4 4 4 2 3 3 2 3 2 4 3 2 2 3 3 5 4 3 3 4 4 4 5 6 6
6 8 5 6 6 8 5 5 6 6 5 6 13 8 3 6 4 2 4 9 9 8 8 9 11 12 11 11 11 11 11 11 10 12 12 13 12 11 12 13 15 16 13 13 14 13 13 13 12 12 13 13 11 10 9 7 8 8 7 8 8 5 7 7 7 7 7 6 7 7 6 6 4 4 4 3 3 3 3 3 1 2 2 1 1 2 3 3 3 3 3 3 3 6 5 6 6
5 6 8 7 7 5 6 2 3 6 8 7 12 9 14 9 3 2 3 5 8 8 9 9 9 8 10 10 11 12 13 12 14 14 13 12 10 11 11 12 13 13 12 13 14 15 15 13 12 11 11 11 10 10 9 9 8 7 6 7 7 6 5 6 7 7 6 7 6 7 7 6 6 5 4 4 3 3 3 1 1 0 1 0 1 2 4 3 3 3 3 2 4 5 6 6 8
4 3 4 6 7 11 9 5 4 6 7 5 7 12 17 12 9 10 6 6 8 11 9 8 11 10 11 12 10 11 13 13 15 12 12 12 11 10 10 10 11 12 11 13 13 12 11 11 10 11 12 11 10 9 8 8 7 6 6 6 7 5 4 6 6 7 7 7 6 7 7 6 6 5 4 4 3 3 3 2 1 1 1 1 1 2 3 3 2 3 4 5 3 4 6 7 7
9 9 9 7 7 7 8 8 3 12 8 9 10 12 14 16 14 13 14 11 12 13 10 11 12 12 13 13 12 10 11 15 11 9 11 11 10 11 9 10 10 11 11 12 13 13 12 11 9 10 10 11 9 9 8 8 7 7 8 6 6 6 5 5 6 7 6 7 6 7 7 5 6 5 5 4 4 3 2 2 2 1 1 2 2 2 2 1 2 3 3 4 6 6 5 7 6
12 10 8 10 8 9 12 13 5 8 4 11 14 14 13 16 13 10 11 10 9 10 9 10 9 12 14 13 12 12 12 14 7 11 13 13 12 11 9 10 10 11 11 12 13 13 14 15 13 14 12 12 11 11 10 10 10 8 5 8 9 7 8 6 6 6 7 6 6 7 6 5 5 5 5 5 4 4 3 2 3 2 2 3 3 2 0 2 2 2 3 3 4 7 5 4 5
14 11 8 10 6 14 12 11 3 5 6 5 9 10 13 16 13 11 11 11 15 14 13 14 15 16 16 14 13 13 12 2 7 7 9 9 9 9 9 10 10 14 11 13 15 15 14 14 15 13 11 12 11 11 11 10 9 11 11 10 8 8 8 9 7 6 6 5 7 6 6 5 5 5 5 5 4 4 4 3 2 2 2 2 1 0 1 1 2 3 2 3 2 4 6 5 8
7 6 5 7 10 11 12 7 4 1 4 7 7 11 13 16 14 13 13 15 13 11 13 16 15 17 15 14 12 9 6 5 7 9 10 11 10 11 11 10 11 14 14 15 14 14 13 14 13 12 12 12 11 11 10 11 8 7 7 7 8 6 4 4 5 5 5 6 7 6 6 6 6 5 6 5 5 4 4 3 2 2 1 1 0 1 1 2 1 2 2 3 5 3 4 5 6
7 6 5 11 9 6 9 2 2 3 5 2 3 9 9 11 14 18 19 19 17 15 17 18 17 17 17 17 13 7 6 8 10 11 11 10 11 11 10 11 11 11 12 11 12 15 12 12 12 13 13 12 11 11 11 9 9 7 6 7 7 7 7 6 5 6 6 7 7 6 6 6 6 6 6 5 5 4 4 4 3 2 1 1 1 0 1 2 2 3 3 3 2 5 3 3 3
7 9 8 10 10 11 9 4 3 4 6 4 5 10 11 11 16 15 16 16 15 15 13 15 16 14 15 14 9 7 8 11 11 9 9 10 12 14 14 12 11 13 13 14 14 14 11 14 14 14 13 13 11 11 12 10 10 8 7 7 6 7 6 6 6 6 6 6 6 7 7 6 7 7 6 6 6 5 4 4 3 2 2 1 1 1 2 3 3 3 2 2 3 4 6 3 3
8 7 12 15 14 13 10 9 4 3 4 5 2 9 9 9 17 18 10 1 8 9 11 14 16 15 14 12 13 8 6 10 14 14 14 14 14 10 10 11 12 12 13 13 13 13 12 12 13 13 12 12 12 13 14 12 12 12 11 11 10 7 8 9 11 12 10 10 9 7 7 7 7 6 6 6 5 4 4 4 3 3 2 2 3 4 3 3 3 3 3 3 4 4 4 6 5
9 5 9 14 13 8 8 8 3 5 6 2 1 2 16 5 7 6 2 5 8 5 9 13 13 14 13 10 10 7 9 8 8 10 10 11 11 12 12 13 14 14 13 11 11 12 13 13 14 14 13 12 12 12 13 11 11 11 14 14 13 14 13 8 6 6 8 7 7 9 8 7 7 7 6 6 5 5 4 4 4 4 3 3 3 3 3 3 3 3 3 3 3 3 3 6 6
10 1 1 0 1 5 4 4 6 7 2 2 4 1 9 21 12 6 9 7 7 8 10 12 12 13 13 12 10 6 9 11 13 13 14 14 15 17 18 17 15 16 12 11 11 12 15 15 14 15 12 12 11 11 14 13 13 12 12 11 10 10 11 10 10 9 8 8 9 8 7 7 7 7 7 5 6 5 5 4 4 4 4 3 3 3 3 3 3 3 2 3 3 4 4 6 6
2 1 3 2 1 0 1 1 4 3 4 7 7 5 4 14 4 12 12 9 11 14 12 13 15 14 12 14 15 6 11 13 13 12 14 15 16 16 14 15 14 11 12 14 14 14 13 12 13 13 13 12 12 13 14 13 12 12 12 11 10 7 8 7 7 7 8 9 9 7 8 7 7 7 7 6 6 6 5 5 4 4 4 4 3 3 3 3 4 4 3 3 3 4 4 4 5
1 1 4 2 1 1 1 1 1 3 2 12 8 10 6 21 15 3 6 13 14 13 15 17 15 14 12 12 13 8 8 9 10 12 13 14 14 13 13 11 11 13 12 11 11 11 12 12 13 15 14 12 12 14 14 14 13 11 12 12 12 9 8 7 8 9 8 8 9 8 7 7 7 7 7 6 6 6 5 5 4 4 4 3 3 3 3 3 3 3 3 3 4 5 4 5 6
2 0 1 2 0 2 0 1 1 3 10 16 10 12 11 14 11 9 8 9 12 11 9 9 11 10 8 9 12 9 9 10 9 9 9 10 10 10 10 13 13 11 10 11 12 12 12 13 13 15 15 12 13 14 15 15 13 12 12 12 13 12 11 10 10 9 8 8 8 8 8 7 7 7 7 6 6 6 5 5 5 4 4 3 3 4 4 4 4 4 5 4 5 5 5 5 6
1 1 1 1 4 2 1 1 2 3 16 6 14 15 16 14 3 2 13 12 15 14 13 14 12 12 11 7 9 10 9 8 9 9 8 9 8 9 10 11 12 13 11 12 12 12 13 13 13 15 14 15 13 14 15 15 14 13 12 12 13 12 13 11 13 13 12 12 10 9 7 7 6 6 7 7 7 6 6 5 5 4 4 4 4 4 4 4 5 3 2 3 3 4 4 5 5
3 4 2 3 4 1 2 3 2 6 14 1 10 12 5 23 17 0 3 3 10 10 10 12 12 10 9 8 9 9 8 8 10 9 8 9 12 13 14 12 12 13 15 16 15 13 13 13 15 16 17 16 15 14 16 15 14 14 13 13 13 12 12 12 12 11 10 11 10 9 9 8 7 7 7 8 7 8 7 6 6 6 5 5 5 5 4 3 1 2 3 4 4 5 5 5 6
8 7 7 5 4 4 6 5 5 6 8 8 6 12 14 12 7 12 10 9 10 11 9 8 10 10 10 10 8 7 8 10 10 10 10 11 12 12 13 14 15 14 14 15 14 14 13 13 15 17 17 16 14 14 15 16 16 14 13 13 13 12 12 12 10 11 10 9 9 10 10 9 9 8 8 7 7 7 6 6 5 5 4 4 3 2 2 2 2 3 3 4 4 5 4 5 7
15 5 10 11 9 3 3 5 10 9 9 1 1 6 7 2 7 12 20 18 12 11 11 9 6 7 8 6 6 7 6 6 8 9 11 12 12 13 14 14 13 13 14 14 13 14 13 14 16 18 16 16 17 17 15 17 15 15 13 12 12 11 11 11 9 9 10 10 9 9 8 7 8 7 8 7 7 7 6 5 5 4 4 4 3 3 3 3 3 3 3 4 4 4 5 6 7
4 3 1 3 10 2 11 10 8 5 5 6 4 7 2 7 1 6 9 14 13 8 12 9 7 6 3 5 7 8 7 7 7 8 9 10 11 11 11 12 12 12 14 13 14 14 15 16 17 18 19 18 18 16 16 17 16 13 13 14 13 12 10 9 8 7 8 9 9 10 9 8 7 7 7 7 6 6 6 5 4 4 4 4 4 4 3 3 3 3 3 3 5 3 5 6 7
2 8 7 11 1 5 5 6 6 3 4 18 4 8 13 8 18 19 14 7 9 9 9 7 8 9 7 7 6 6 8 7 7 9 11 10 7 8 11 11 11 11 12 16 18 18 20 17 16 17 16 14 17 17 17 15 14 14 15 14 12 12 13 13 11 11 10 9 9 8 9 8 7 7 7 6 7 5 6 5 5 5 4 4 4 3 3 3 3 3 4 4 6 4 5 6 7
7 2 6 0 2 3 2 3 1 3 7 13 7 13 16 9 17 3 9 14 12 10 12 14 15 13 8 8 7 8 9 9 8 8 7 8 11 13 12 11 13 15 17 16 17 15 15 15 16 17 16 18 18 17 17 16 16 16 15 15 14 14 13 12 11 12 10 10 8 8 8 8 8 7 7 6 6 6 5 5 5 4 4 3 3 3 3 3 3 4 4 5 5 4 6 6 6
4 5 2 3 3 2 3 1 5 6 9 7 9 17 15 17 20 10 2 11 13 15 16 15 14 9 7 7 9 7 6 6 8 8 9 10 11 12 13 15 14 14 13 13 13 12 11 12 14 15 19 20 18 15 14 12 14 12 13 15 15 13 11 11 10 11 10 11 11 10 9 9 8 8 8 7 7 6 5 5 5 4 4 4 4 4 3 3 3 4 4 5 4 4 5 7 6
2 2 3 1 1 3 6 8 3 3 12 5 15 15 17 13 7 6 6 10 11 15 15 11 10 10 9 9 9 8 8 8 7 8 10 12 12 13 15 14 14 15 15 13 13 11 13 14 13 13 12 10 11 14 15 15 15 13 12 11 12 12 12 12 11 12 12 12 11 11 10 9 9 8 7 7 7 6 6 6 5 5 4 4 4 3 3 3 3 4 4 5 5 5 6 7 6
4 1 4 1 2 2 2 3 6 8 8 9 9 13 19 5 2 5 6 12 11 11 8 7 8 8 10 10 11 9 8 8 9 10 11 11 12 11 10 10 10 7 6 7 10 14 14 11 12 13 15 16 16 16 14 15 13 14 14 16 15 13 13 11 11 11 11 11 10 10 9 8 8 8 8 8 7 7 6 6 5 4 4 4 3 3 3 3 3 4 5 5 5 5 7 7 6
11 14 15 16 9 4 5 14 3 5 7 7 7 16 17 11 3 3 6 11 11 7 10 9 8 10 9 7 6 6 6 8 10 10 10 11 10 11 9 6 5 6 7 10 11 10 10 14 15 14 12 13 15 14 15 15 14 14 15 15 14 12 12 11 12 12 11 11 10 10 10 9 9 8 8 7 7 6 5 5 4 4 4 3 3 3 3 3 4 5 6 5 6 6 7 8 6
Wind_Direction
286 252 241 240 252 255 314 233 311 201 212 245 260 228 108 77 132 109 110 71 103 92 75 129 31 27 28 29 7 61 36 58 30 272 220 142 119 102 95 96 93 97 108 99 112 83 64 53 80 78 79 75 71 68 68 68 65 66 63 56 53 54 49 49 51 53 50 48 50 50 49 49 48 46 45 49 49 46 45 42 35 33 35 36 42 40 40 39 37 34 44 47 47 43 38 30 27
274 254 252 263 271 338 267 169 244 279 206 265 250 136 130 100 141 151 129 169 28 71 63 47 46 60 70 354 323 19 63 46 39 104 80 122 130 104 109 28 105 105 103 100 93 90 75 57 85 88 88 86 81 74 73 72 70 72 73 67 64 62 60 56 52 54 49 49 51 50 50 49 50 48 45 45 46 44 42 36 35 30 28 25 31 32 33 35 39 44 45 49 47 36 35 34 31
308 307 276 212 258 231 307 302 264 293 293 265 18 50 128 93 125 76 58 83 93 79 61 57 43 39 320 332 288 353 113 109 92 92 103 146 134 170 144 167 124 103 64 78 83 92 77 61 84 95 94 92 87 84 79 76 75 75 76 74 72 68 65 62 59 60 57 53 54 52 52 53 53 52 50 51 50 46 44 38 35 34 30 27 29 27 26 28 28 32 30 33 41 34 26 29 28
284 283 296 298 288 152 277 186 243 268 286 282 106 157 170 125 81 87 86 80 80 106 93 79 70 347 340 198 1 320 100 92 90 131 131 178 137 144 154 167 152 118 130 97 88 72 79 82 95 96 94 88 86 85 83 82 81 80 79 79 76 74 72 71 69 68 65 63 60 57 55 54 54 54 55 55 52 52 50 46 43 40 35 33 32 30 29 26 30 33 26 26 33 31 26 23 22
278 264 223 307 296 218 287 241 262 251 257 289 88 82 92 112 102 97 82 93 88 96 136 89 76 21 70 35 335 303 137 93 74 83 96 98 129 131 149 179 140 147 135 107 101 96 82 86 94 94 91 89 88 86 86 86 84 84 81 79 78 76 74 71 70 69 68 65 62 60 58 55 54 54 53 51 50 50 48 46 44 41 39 36 33 32 31 30 30 32 34 31 33 33 29 27 23
257 276 200 166 264 77 313 303 272 246 249 316 359 158 87 91 109 108 98 72 62 61 40 144 21 115 193 103 15 105 179 197 132 104 128 125 122 148 151 172 130 124 97 74 80 86 87 90 90 92 94 94 93 90 88 87 86 84 83 81 78 75 73 72 71 68 66 63 62 59 56 55 54 54 53 51 50 49 47 45 41 40 38 36 34 31 32 32 32 32 31 28 28 29 28 25 24
306 303 183 212 269 132 250 255 264 273 305 311 45 54 127 89 118 116 124 113 86 94 16 124 133 14 218 78 74 61 73 359 142 81 113 147 138 143 164 144 113 115 110 97 85 72 77 104 103 98 96 95 93 92 89 86 84 82 81 80 78 74 72 71 69 68 64 63 60 58 56 53 53 53 52 51 49 48 46 44 41 37 35 32 31 30 29 29 30 31 29 27 27 24 22 19 18
234 84 125 216 257 115 231 241 261 269 270 47 299 64 43 117 127 138 154 183 168 164 175 86 88 6 227 142 211 110 70 54 101 114 120 127 139 156 157 127 126 127 102 100 98 87 76 97 102 103 99 94 93 93 90 88 85 82 80 79 76 75 72 70 67 66 64 62 60 58 55 53 51 51 49 49 47 45 44 41 40 37 33 31 29 27 24 24 25 25 24 25 24 21 17 14 12
224 161 354 22 274 220 246 246 253 251 178 124 87 78 348 121 160 146 156 151 103 209 149 157 180 127 140 172 85 181 96 128 119 121 123 134 143 163 155 144 134 125 112 111 111 96 62 89 95 93 92 94 94 91 90 89 88 86 83 81 80 78 75 72 70 67 66 65 63 61 58 55 53 50 49 48 45 43 41 40 37 34 32 29 26 24 23 21 20 20 20 18 18 16 12 9 6
266 158 232 244 299 277 260 249 236 234 106 80 118 147 164 117 159 189 160 166 156 163 166 149 171 222 152 197 108 195 174 136 126 112 132 140 150 153 106 105 105 113 110 112 102 97 88 78 86 90 93 95 95 94 92 91 90 88 87 84 82 80 77 76 74 72 70 68 66 64 61 59 56 53 50 48 46 43 42 40 38 35 33 30 27 24 22 19 18 17 16 14 11 9 5 3 2
241 158 234 347 235 251 251 267 314 44 84 122 91 116 161 134 178 199 175 189 130 161 108 135 183 224 253 262 78 307 121 139 142 143 151 146 139 123 114 99 123 120 113 114 130 134 110 88 87 90 93 95 95 95 94 92 89 88 87 85 83 80 78 76 74 73 72 70 67 64 61 59 56 54 51 47 45 43 40 39 38 37 34 31 29 27 24 21 18 16 15 12 8 5 1 359 357
270 200 137 247 262 259 283 325 320 341 134 139 195 142 123 172 191 195 195 206 160 136 158 163 206 163 212 243 160 153 143 158 153 143 143 143 139 136 118 116 101 103 124 141 136 127 126 114 96 93 95 94 93 93 93 93 93 91 88 84 82 79 77 75 74 72 70 70 69 64 61 58 56 54 51 48 44 41 39 36 36 35 33 30 29 27 25 22 18 16 14 10 6 4 1 359 357
264 318 223 230 252 265 286 320 290 339 309 252 151 152 123 187 198 199 210 225 161 172 190 190 97 269 227 198 52 144 168 176 142 144 143 155 143 128 136 126 132 137 142 142 124 136 143 126 130 118 104 95 91 93 94 96 97 95 92 90 85 83 79 75 74 70 68 67 68 66 62 58 56 53 50 47 43 39 37 32 32 31 31 28 27 26 24 21 18 15 12 9 6 4 2 1 2
245 251 336 280 289 281 271 255 295 276 291 43 55 116 165 183 185 226 253 208 195 194 329 179 144 154 264 91 224 180 188 161 136 141 155 146 129 136 131 134 134 135 150 138 138 141 140 139 129 140 132 117 107 91 94 99 98 98 97 93 91 86 80 75 70 66 63 63 63 65 64 59 54 51 48 44 41 36 30 26 25 27 26 24 23 22 21 19 17 14 12 9 6 3 1 2 2
286 317 314 257 275 302 264 255 230 349 297 90 100 132 190 227 172 221 246 240 156 12 336 114 146 87 264 205 204 195 161 148 136 142 150 120 130 126 117 125 138 138 154 149 143 153 148 139 153 164 160 147 138 120 100 98 102 100 97 92 90 86 82 80 75 69 66 64 64 71 83 83 66 56 55 49 46 41 33 22 19 24 24 21 18 18 17 15 13 13 10 9 7 5 2 1 2
249 346 249 259 262 250 277 206 265 255 257 105 207 131 188 179 67 226 51 78 82 286 21 205 204 208 322 355 32 113 134 129 139 141 125 127 131 114 123 141 146 148 170 151 154 156 150 141 144 142 143 143 123 125 124 117 108 106 100 97 92 89 88 88 89 90 79 68 103 93 132 113 93 68 57 58 60 52 44 29 20 24 25 22 18 16 16 13 11 9 8 7 7 7 4 2 7
319 90 273 239 268 251 220 195 130 248 124 140 172 171 175 195 161 64 143 247 204 163 222 192 188 349 317 107 126 121 124 130 138 134 129 143 138 141 156 168 156 161 166 167 161 164 148 147 148 149 147 129 127 133 136 134 133 116 109 108 105 104 100 95 96 102 144 92 313 144 118 100 104 101 97 43 77 96 84 37 25 23 26 22 17 15 16 14 11 10 9 7 11 10 10 357 7
177 210 208 258 246 251 3 321 2 105 2 124 230 186 200 239 123 176 60 263 233 240 184 227 185 198 102 143 121 125 132 141 148 146 158 159 165 164 177 186 168 179 171 181 176 164 157 157 155 144 136 136 137 139 146 153 174 150 147 144 134 115 116 116 92 90 61 355 351 79 71 35 112 109 111 80 81 46 32 39 16 23 23 20 14 14 13 10 8 10 9 8 13 11 5 355 357
193 236 227 247 260 270 217 3 357 19 293 42 168 174 228 255 147 152 171 219 203 236 239 193 218 169 96 133 127 134 145 150 158 166 166 173 181 179 179 181 182 166 178 180 185 167 168 162 158 143 150 148 145 155 160 167 164 132 133 124 130 132 122 89 104 86 75 354 359 78 73 348 75 96 89 12 351 350 42 30 9 26 20 21 11 18 13 8 8 7 6 7 8 3 358 352 352
224 248 260 265 283 312 289 286 306 329 2 297 290 184 194 247 177 98 211 247 205 216 222 212 211 212 167 162 147 152 156 163 171 174 180 185 187 184 179 183 187 183 177 178 177 167 167 164 170 151 159 156 152 165 167 169 153 155 155 162 155 152 147 131 106 96 83 30 25 68 73 329 60 59 48 29 39 39 24 22 21 28 11 19 10 16 12 0 360 359 2 2 355 353 349 347 347
202 171 224 249 153 350 345 41 25 33 55 306 286 350 216 238 231 142 204 244 247 245 216 205 209 217 184 169 160 162 167 171 182 187 186 192 193 196 190 188 186 179 171 162 165 175 173 164 171 151 154 164 166 168 174 167 162 154 150 157 144 142 158 146 134 118 106 77 29 87 107 36 80 69 57 40 39 40 33 22 17 21 7 17 9 15 16 356 350 352 355 352 353 349 348 341 339
2 229 250 258 272 217 341 73 44 59 42 349 286 279 237 224 226 193 206 222 249 214 230 214 212 206 187 167 173 170 174 179 184 192 196 193 193 196 191 182 174 175 161 171 175 173 174 169 164 154 157 176 173 171 172 157 149 140 150 145 143 120 131 132 134 127 98 51 80 350 90 63 69 73 68 51 48 47 43 22 15 19 6 13 14 7 14 360 349 349 351 356 347 346 342 337 332
237 247 240 246 252 269 131 202 101 104 191 211 249 262 280 226 252 214 212 224 240 191 106 34 226 208 195 168 163 176 181 186 189 195 196 197 198 198 196 183 176 180 173 178 165 172 170 166 158 156 164 173 173 173 144 141 164 146 146 150 142 144 146 138 116 105 94 78 55 35 50 49 69 66 60 54 57 52 47 32 7 24 5 20 12 8 10 360 350 349 350 354 347 344 340 333 339
234 257 285 299 309 250 268 169 136 190 226 239 252 30 273 239 246 221 231 233 242 251 289 160 102 61 107 151 172 181 187 190 196 198 196 198 195 195 191 187 181 169 167 171 168 168 173 166 161 159 166 167 180 162 140 161 170 138 137 136 144 150 143 126 116 120 133 99 62 36 10 77 81 76 52 54 54 54 51 32 9 27 10 24 17 11 14 2 348 347 344 353 346 343 338 331 342
224 260 247 253 68 268 262 149 190 207 232 249 287 275 242 233 248 291 254 244 236 231 235 200 165 133 140 162 179 188 193 199 203 202 202 206 199 196 197 193 176 168 174 175 167 164 175 163 162 166 165 169 175 156 161 165 148 128 134 155 135 157 141 136 137 157 136 116 100 66 27 58 69 80 59 55 64 56 53 43 30 32 13 27 29 6 21 3 349 339 340 347 341 338 332 325 333
216 243 266 302 286 268 244 218 195 205 228 205 226 242 250 248 286 264 256 252 246 246 228 210 182 186 175 177 184 187 195 199 200 198 200 195 192 189 200 196 182 182 178 168 167 169 168 163 166 171 167 168 169 165 170 155 149 146 165 156 143 168 146 137 157 155 137 129 119 108 59 72 76 81 68 52 77 64 60 46 34 34 23 30 35 15 14 8 338 330 330 332 334 330 325 319 328
101 299 315 302 287 293 275 249 225 202 213 184 212 240 245 238 170 270 238 242 235 233 233 226 187 204 205 194 187 193 194 201 200 198 188 193 197 197 197 195 195 185 163 175 171 166 169 163 170 173 166 165 166 171 166 154 153 156 163 143 153 166 140 149 168 138 125 113 121 127 110 76 91 80 89 66 67 71 76 58 35 40 25 31 40 16 3 343 313 301 302 316 324 316 307 312 314
304 323 310 280 269 255 250 250 236 212 232 198 201 240 259 242 166 238 257 127 204 211 223 217 212 204 207 209 197 196 202 206 199 185 195 190 200 197 192 194 196 178 171 178 173 161 166 170 169 173 167 166 165 172 158 154 159 156 154 145 164 152 152 172 153 142 128 116 126 134 111 87 107 117 111 96 113 91 87 69 49 56 21 43 34 7 330 303 293 285 307 327 315 306 313 312 306
335 5 306 278 274 268 241 226 227 185 236 177 187 295 258 215 229 237 248 204 215 203 213 211 213 209 202 208 211 203 207 200 192 197 202 202 199 192 197 195 189 185 178 171 168 163 171 170 171 173 166 164 168 168 163 155 155 151 154 158 154 149 168 156 149 149 134 134 134 123 116 144 130 120 118 124 128 107 101 89 70 61 53 57 26 335 319 326 334 327 323 335 330 334 321 316 325
259 236 248 287 276 263 250 231 206 176 209 143 138 272 252 220 222 244 249 204 208 217 219 214 213 209 203 206 213 216 210 200 201 205 203 201 195 194 196 191 187 185 171 170 162 173 170 168 171 166 166 165 170 161 161 152 151 149 154 147 143 154 170 155 155 148 138 141 135 132 135 125 118 108 117 127 107 103 115 111 88 46 67 50 7 338 351 344 317 315 331 343 325 322 320 320 326
238 265 235 243 307 262 256 220 171 178 136 156 174 234 265 271 212 232 245 184 187 208 214 212 212 213 211 213 215 215 213 206 209 205 201 198 195 192 193 184 184 181 164 173 177 171 165 170 170 169 165 165 169 159 161 154 146 153 157 145 151 170 163 155 152 144 145 145 140 149 138 132 112 114 117 130 135 134 111 86 62 72 66 43 8 348 341 316 304 320 341 328 319 325 318 313 312
216 336 245 237 218 270 285 41 150 183 171 190 141 252 253 263 268 235 226 175 181 204 209 213 216 218 217 217 219 219 220 213 215 209 200 197 192 190 186 187 180 179 179 175 167 164 170 171 172 164 162 167 173 160 159 153 153 156 155 147 155 175 159 156 161 149 159 151 144 145 138 132 130 133 139 136 132 110 110 86 73 57 63 47 7 331 321 303 307 329 318 314 326 317 317 307 301
219 199 250 253 239 266 288 203 203 182 112 207 180 230 246 241 251 58 114 159 175 203 211 210 217 221 222 221 219 221 225 224 217 212 203 196 197 188 187 182 181 183 175 168 169 168 169 172 172 164 167 168 171 159 155 151 153 154 156 152 159 162 160 158 156 151 154 147 142 142 146 146 144 142 144 139 135 130 88 88 65 89 80 68 308 286 280 282 309 302 300 319 343 313 312 301 304
254 200 230 230 240 268 256 4 245 200 145 192 219 236 248 251 243 175 163 177 187 213 217 219 223 221 223 226 219 217 220 219 215 208 204 193 194 190 184 184 180 177 176 171 169 170 172 171 172 168 165 166 167 159 157 153 151 151 148 146 150 163 161 159 155 151 156 156 150 145 147 150 152 152 146 142 109 98 107 114 157 129 123 150 234 261 261 271 273 277 320 334 338 316 311 310 301
229 231 264 262 241 226 249 256 199 193 200 223 207 235 257 256 258 266 231 204 211 220 228 239 248 244 245 241 234 219 220 217 222 204 197 193 187 189 179 178 173 175 174 170 168 167 165 167 167 167 165 165 163 155 148 147 144 140 133 136 148 167 168 164 154 156 164 158 155 143 144 151 151 147 142 130 136 130 131 133 130 191 153 184 224 245 261 271 305 14 358 323 323 305 293 287 282
262 269 268 267 271 276 271 270 133 176 197 217 220 224 240 251 252 252 261 250 235 238 232 236 244 249 249 245 242 234 219 226 216 192 188 190 186 181 174 171 170 172 168 167 167 166 166 166 166 165 168 163 157 155 151 152 149 156 152 146 156 171 177 169 165 164 169 156 154 139 145 156 150 148 144 141 130 132 141 164 159 144 192 202 216 240 261 329 1 351 340 337 317 301 280 276 283
259 266 267 267 271 274 266 273 211 202 200 216 225 236 246 257 252 248 258 261 259 256 249 240 234 239 243 246 242 237 228 228 186 185 179 183 182 178 168 165 165 169 169 167 167 173 171 172 167 174 171 168 165 165 167 165 163 161 159 174 176 175 174 171 171 170 166 163 146 141 146 153 144 142 144 138 152 155 150 171 182 190 198 203 210 223 165 12 8 342 316 320 305 300 294 289 298
246 253 263 274 269 270 267 284 146 222 188 239 227 237 245 253 256 253 253 251 251 253 255 254 254 250 254 252 249 238 234 165 151 159 170 173 174 169 163 165 163 171 177 168 174 178 174 172 176 172 172 174 175 173 170 173 176 177 171 177 166 173 171 173 175 180 166 155 143 144 145 156 147 147 153 148 157 155 161 166 164 181 179 219 220 112 3 331 310 297 288 305 257 291 298 313 303
276 270 281 288 267 274 282 272 144 237 170 263 269 266 261 264 266 263 252 249 245 243 244 251 249 257 258 258 249 243 206 170 163 167 165 174 171 170 168 173 177 176 174 178 177 176 175 175 177 174 177 176 177 172 172 177 172 170 167 166 165 164 173 155 153 161 152 143 146 146 153 156 154 159 155 155 156 162 168 155 162 175 194 176 27 358 1 323 299 294 275 264 299 284 285 288 290
255 263 271 255 263 271 290 150 224 198 199 233 227 268 265 273 269 262 256 252 249 241 244 252 250 251 255 255 247 233 198 164 172 171 170 172 171 172 171 177 176 174 178 179 177 180 177 178 178 177 180 179 177 175 175 172 166 159 153 150 159 154 164 156 144 149 149 139 153 156 162 161 161 164 159 158 158 158 162 164 160 159 206 166 162 250 297 271 275 280 271 259 260 299 297 288 313
227 224 238 257 253 243 232 267 184 218 239 268 314 283 267 243 260 261 255 243 246 246 241 248 255 253 251 258 261 217 192 177 173 170 170 168 174 183 183 177 173 180 184 185 181 181 184 180 180 179 180 181 179 173 172 164 154 152 142 128 103 101 98 121 123 135 152 155 152 167 176 165 164 162 161 161 160 169 169 161 155 180 174 174 143 181 230 237 243 240 240 273 269 254 282 283 304
257 214 207 237 249 261 265 274 338 337 294 172 177 305 260 214 225 243 263 190 225 233 222 236 247 254 251 250 246 233 204 176 172 179 179 180 180 178 179 180 182 186 190 189 183 181 179 178 178 179 180 181 181 176 171 168 169 162 154 153 154 155 163 165 179 178 175 177 181 167 168 169 165 161 159 160 161 163 162 154 156 163 181 202 185 202 216 237 252 259 251 237 253 250 259 281 284
274 245 206 237 250 253 265 278 319 270 241 312 352 188 293 160 254 238 238 195 226 237 214 229 233 245 252 243 243 218 190 171 179 180 173 171 180 178 185 188 189 190 195 181 179 182 182 180 180 180 182 182 180 176 172 170 170 173 174 175 173 175 174 192 178 168 170 170 162 169 171 165 164 159 162 161 163 165 157 157 162 175 191 188 197 198 226 234 241 245 254 247 241 253 269 275 271
263 131 342 102 280 261 250 238 208 251 323 264 163 115 279 288 245 226 227 214 221 230 231 233 238 234 241 248 248 208 178 176 180 184 182 181 180 184 188 190 190 195 182 176 183 183 185 184 181 182 181 182 181 174 178 177 175 176 176 180 180 182 183 176 175 175 166 162 165 165 158 161 160 159 161 164 163 163 159 161 164 178 185 197 193 208 210 220 229 255 245 233 246 249 251 259 270
233 297 51 74 90 90 54 222 257 252 329 267 169 158 252 262 260 187 191 229 229 236 235 237 238 235 223 234 248 214 179 182 179 181 180 180 185 191 188 189 193 181 179 185 187 187 184 182 181 180 184 181 181 178 180 182 180 179 180 178 182 188 175 166 164 162 156 157 153 153 155 160 161 163 164 163 167 162 160 165 170 179 185 200 195 208 215 216 228 238 263 280 266 264 242 246 259
246 149 69 81 70 62 172 207 254 312 282 256 163 174 216 274 261 219 206 201 216 225 230 236 236 235 220 219 227 211 185 186 190 185 178 184 186 185 185 180 178 187 186 185 184 181 184 181 182 183 187 183 180 180 182 182 180 177 183 185 182 177 170 161 155 156 151 153 153 158 158 160 164 164 167 164 163 164 160 163 171 179 190 198 198 210 218 231 240 242 241 244 252 256 252 253 252
137 103 90 36 317 213 309 160 139 351 253 253 178 192 182 269 276 186 157 211 204 212 230 235 240 245 235 210 211 197 190 183 182 183 182 179 177 172 167 176 182 178 182 182 183 186 184 185 184 187 189 181 181 183 182 185 182 185 186 185 183 178 172 158 154 158 153 153 161 165 167 168 162 165 163 168 164 162 164 166 171 183 186 191 201 204 217 215 225 233 234 232 234 237 247 247 257
122 109 159 333 311 37 7 314 113 193 269 253 177 187 189 232 315 191 193 187 195 195 206 212 223 228 232 211 207 200 184 177 171 168 170 158 156 167 168 174 177 180 177 184 188 185 186 187 185 188 188 188 185 183 184 186 186 189 187 185 185 182 174 170 170 169 170 170 169 168 164 159 170 163 161 163 171 165 166 171 174 178 185 194 209 210 217 216 216 208 224 232 246 247 245 245 244
166 133 114 157 254 56 278 80 260 204 244 92 177 173 229 232 237 57 243 220 207 211 215 202 206 216 224 220 205 193 176 161 166 169 163 166 172 174 179 177 174 180 185 188 186 185 186 187 188 188 194 189 188 183 187 187 187 190 188 186 186 181 182 178 175 172 172 170 166 163 165 170 164 161 167 162 169 167 164 168 173 179 188 201 210 209 208 201 201 233 239 245 244 247 246 250 250
167 165 165 137 249 226 260 244 221 263 257 261 214 178 220 262 262 209 230 221 207 205 220 219 193 199 208 213 198 175 171 170 172 170 174 177 179 181 182 180 183 183 186 185 184 185 187 189 190 192 195 189 186 185 187 188 193 192 189 187 185 182 184 181 180 174 173 169 167 167 169 169 168 169 165 171 168 163 164 167 169 176 180 184 186 201 214 217 217 224 234 241 247 250 252 250 251
198 184 154 197 185 178 232 219 241 239 261 303 262 100 239 91 250 181 209 219 206 198 206 217 201 196 209 199 171 158 160 174 169 174 181 184 184 181 184 187 184 185 184 184 185 188 185 192 192 194 192 191 188 189 186 191 192 191 190 189 184 184 182 179 179 173 167 165 166 161 160 158 159 164 163 162 153 154 155 150 158 165 179 195 200 206 204 207 212 225 233 240 248 246 248 249 252
211 167 184 296 228 162 235 240 257 290 338 305 202 213 236 240 349 212 210 216 221 203 204 205 211 221 164 139 161 173 181 177 178 181 187 192 189 185 186 188 189 185 184 185 188 186 190 196 194 195 195 191 189 186 191 191 191 188 189 187 186 181 177 170 166 162 160 159 159 158 158 155 151 146 146 141 145 144 147 151 161 178 185 196 202 200 205 209 217 227 244 242 253 244 244 246 249
214 124 203 212 58 190 265 302 285 322 310 264 252 272 262 304 272 241 229 208 214 213 214 207 211 222 191 188 188 187 188 185 184 189 193 192 188 195 194 192 189 185 185 190 191 191 194 189 191 196 196 192 193 192 191 190 187 186 191 186 182 180 177 175 171 167 160 154 150 152 151 151 142 142 143 142 140 141 149 157 175 184 193 195 197 203 206 212 213 222 231 241 252 247 248 249 252
96 197 241 41 20 103 152 246 349 230 235 272 289 266 287 307 288 71 187 204 208 201 206 209 211 214 197 205 204 197 197 197 194 195 196 195 194 193 193 196 195 193 194 193 195 195 194 192 192 192 190 195 198 191 190 187 187 189 186 187 185 182 178 173 166 161 156 150 149 146 143 145 154 149 142 142 139 148 151 163 173 190 191 192 201 209 208 214 216 229 234 243 244 245 251 254 251
157 188 327 125 245 268 235 126 253 261 254 269 269 280 268 254 262 286 332 200 205 204 211 211 212 210 207 214 221 216 193 170 180 196 197 196 196 200 200 199 201 201 197 196 197 189 191 196 197 193 196 199 196 191 189 187 188 189 187 186 182 178 174 169 163 156 153 154 155 153 153 151 142 145 143 143 148 154 160 178 183 194 193 202 204 208 207 212 214 233 243 250 250 247 251 256 250
126 37 331 181 91 210 151 193 201 170 256 269 272 283 273 254 243 268 223 189 197 202 211 210 203 208 205 212 216 212 185 194 201 200 202 202 204 203 200 199 197 197 195 194 187 185 195 198 188 197 201 195 192 195 190 189 190 184 184 178 181 176 171 166 163 159 159 159 157 153 151 151 157 148 150 148 156 162 172 185 187 186 197 198 205 210 203 214 221 232 239 247 251 248 254 256 260
225 226 261 248 197 227 99 291 205 206 228 225 261 274 270 268 175 219 196 185 194 198 204 209 218 220 215 209 209 206 200 204 202 200 207 210 208 209 214 212 211 204 190 181 183 190 194 188 195 194 194 194 195 198 189 193 182 186 178 181 178 171 169 161 157 158 156 157 154 152 154 152 142 155 151 155 163 169 174 178 180 186 191 202 206 218 203 206 219 237 239 242 247 248 254 257 261
194 189 215 210 186 187 221 250 220 234 216 232 230 251 265 275 55 100 168 196 182 197 191 201 218 221 225 237 234 214 210 206 207 213 206 206 214 217 211 192 185 186 195 192 194 180 182 194 199 191 190 195 199 195 195 190 185 183 182 178 173 166 161 159 158 157 156 157 156 154 151 147 153 156 153 159 165 165 170 174 178 192 197 205 215 214 217 213 240 246 250 242 246 248 250 257 255